This is the latest recevied weather packets stored in our database for station/object N5PA. If no packets are shown the sender has not sent any weather packets the latest 10 day(s).
| Time | Temp. | Humidity | Pressure | Rain* | Wind** | Luminosity | Snow |
|---|---|---|---|---|---|---|---|
| 1777226706 | 25.56° C | 64% | 1012.5 hPa | 0 mm | - | 979 W/m² | - |
| 1777226406 | 25.56° C | 62% | 1012.4 hPa | 0 mm | - | 977 W/m² | - |
| 1777226106 | 26.11° C | 63% | 1012.4 hPa | 0 mm | - | 977 W/m² | - |
| 1777225806 | 26.11° C | 61% | 1012.4 hPa | 0 mm | - | 977 W/m² | - |
| 1777225505 | 26.11° C | 61% | 1012.5 hPa | 0 mm | - | 976 W/m² | - |
| 1777225205 | 26.11° C | 63% | 1012.4 hPa | 0 mm | - | 974 W/m² | - |
| 1777224907 | 25.56° C | 62% | 1012.4 hPa | 0 mm | - | 972 W/m² | - |
| 1777224606 | 25.56° C | 65% | 1012.4 hPa | 0 mm | - | 972 W/m² | - |
| 1777224306 | 25.56° C | 64% | 1012.4 hPa | 0 mm | - | 972 W/m² | - |
| 1777224006 | 25.56° C | 65% | 1012.4 hPa | 0 mm | - | 972 W/m² | - |
| 1777223706 | 25° C | 66% | 1012.3 hPa | 0 mm | - | 972 W/m² | - |
| 1777223406 | 25° C | 67% | 1012.4 hPa | 0 mm | - | 974 W/m² | - |
| 1777223106 | 24.44° C | 68% | 1012.4 hPa | 0 mm | - | 974 W/m² | - |
| 1777222806 | 24.44° C | 69% | 1012.4 hPa | 0 mm | - | 974 W/m² | - |
| 1777222505 | 24.44° C | 70% | 1012.4 hPa | 0 mm | - | 974 W/m² | - |
| 1777222205 | 23.89° C | 72% | 1012.4 hPa | 0 mm | - | 976 W/m² | - |
| 1777221905 | 23.33° C | 73% | 1012.4 hPa | 0 mm | - | 976 W/m² | - |
| 1777221606 | 23.33° C | 74% | 1012.4 hPa | 0 mm | - | 977 W/m² | - |
| 1777221305 | 22.78° C | 75% | 1012.6 hPa | 0 mm | - | 979 W/m² | - |
| 1777221006 | 22.22° C | 75% | 1012.6 hPa | 0 mm | - | 981 W/m² | - |
| 1777220706 | 22.22° C | 74% | 1012.5 hPa | 0 mm | - | 983 W/m² | - |
| 1777220405 | 21.67° C | 73% | 1012.6 hPa | 0 mm | - | 983 W/m² | - |
| 1777220105 | 21.67° C | 72% | 1012.6 hPa | 0 mm | - | 984 W/m² | - |
| 1777219805 | 21.11° C | 69% | 1012.6 hPa | 0 mm | - | 984 W/m² | - |
| 1777219505 | 21.11° C | 60% | 1012.6 hPa | 0 mm | - | 988 W/m² | - |
* Rain latest hour (hover to see other rain measurements)
** Current wind speed in m/s (hover to see current wind gust speed)